User: anonymous   Login
Location: Codford Saint Peter
(51.1597°N, 2.0531°W)
Time: 01:05:57
(UTC+00:00)
Language:

Resurs 01 Rocket - Orbit

View from above orbital plane
View from above orbital plane
View from above satellite
View from above satellite

Ground track
Ground track

The orbit data is extracted from the following two-line orbital elements,

1 23343U 94074B   20331.58924140 +.00000073 +00000-0 +17703-4 0  9993
2 23343 097.9783 022.9679 0006728 000.3693 125.7321 14.76847740402341
Epoch (UTC): 26 November 2020 14:08:30
Eccentricity: 0.0006728
inclination: 97.9783°
perigee height: 634 km
apogee height: 644 km
right ascension of ascending node: 22.9679°
argument of perigee: 0.3693°
revolutions per day: 14.76847740
mean anomaly at epoch: 125.7321°
orbit number at epoch: 40234

The dashed part of the orbit path shows where the satellite is in the earth's shadow,  

DLR